Time,TemperatureF,DewpointF,PressureIn,WindDirection,WindDirectionDegrees,WindSpeedMPH,WindSpeedGustMPH,Humidity,HourlyPrecipIn,Conditions,Clouds,dailyrainin,SoftwareType,DateUTC
2013-02-14 00:00:00,30.3,27.4,29.71,North,355,0.0,0.0,89,0.00,,,0.00,Wunderground v.1.15,2013-02-14 05:00:00,
2013-02-14 00:03:00,30.3,27.4,29.71,North,355,0.0,0.0,89,0.00,,,0.00,Wunderground v.1.15,2013-02-14 05:03:00,
2013-02-14 00:08:00,30.3,27.4,29.71,North,355,0.0,0.0,89,0.00,,,0.00,Wunderground v.1.15,2013-02-14 05:08:00,
2013-02-14 00:13:00,30.3,27.4,29.71,North,355,0.0,0.0,89,0.00,,,0.00,Wunderground v.1.15,2013-02-14 05:13:00,
2013-02-14 00:15:00,30.3,27.4,29.71,North,355,0.0,0.0,89,0.00,,,0.00,Wunderground v.1.15,2013-02-14 05:15:00,
2013-02-14 00:21:00,30.3,27.4,29.72,North,355,0.0,0.0,89,0.00,,,0.00,Wunderground v.1.15,2013-02-14 05:21:00,
2013-02-14 00:26:00,30.3,27.4,29.71,North,355,0.0,0.0,89,0.00,,,0.00,Wunderground v.1.15,2013-02-14 05:26:00,
2013-02-14 00:32:00,30.4,27.8,29.70,North,355,3.0,3.0,90,0.00,,,0.00,Wunderground v.1.15,2013-02-14 05:32:00,
2013-02-14 00:38:00,30.5,27.9,29.70,NNW,332,4.0,4.0,90,0.00,,,0.00,Wunderground v.1.15,2013-02-14 05:38:00,
2013-02-14 00:43:00,30.5,27.6,29.70,NW,317,1.0,3.0,89,0.00,,,0.00,Wunderground v.1.15,2013-02-14 05:43:00,
2013-02-14 00:48:00,30.5,27.4,29.70,NW,309,0.0,3.0,88,0.00,,,0.00,Wunderground v.1.15,2013-02-14 05:48:00,
2013-02-14 00:53:00,30.5,27.4,29.69,NW,309,0.0,1.0,88,0.00,,,0.00,Wunderground v.1.15,2013-02-14 05:53:00,
2013-02-14 00:59:00,30.5,27.4,29.69,NW,309,0.0,1.0,88,0.00,,,0.00,Wunderground v.1.15,2013-02-14 05:59:00,
2013-02-14 01:04:00,30.5,27.4,29.70,NW,309,0.0,2.0,88,0.00,,,0.00,Wunderground v.1.15,2013-02-14 06:04:00,
2013-02-14 01:10:00,30.5,27.4,29.71,NW,309,0.0,0.0,88,0.00,,,0.00,Wunderground v.1.15,2013-02-14 06:10:00,
2013-02-14 01:16:00,30.5,27.4,29.71,NW,309,1.0,2.0,88,0.00,,,0.00,Wunderground v.1.15,2013-02-14 06:16:00,
2013-02-14 01:21:00,30.6,27.2,29.71,NW,309,1.0,1.0,87,0.00,,,0.00,Wunderground v.1.15,2013-02-14 06:21:00,
2013-02-14 01:27:00,30.7,27.3,29.71,NW,309,0.0,2.0,87,0.00,,,0.00,Wunderground v.1.15,2013-02-14 06:27:00,
2013-02-14 01:32:00,30.7,27.8,29.71,NW,313,2.0,2.0,89,0.00,,,0.00,Wunderground v.1.15,2013-02-14 06:32:00,
2013-02-14 01:38:00,30.6,28.0,29.71,NW,313,1.0,2.0,90,0.00,,,0.00,Wunderground v.1.15,2013-02-14 06:38:00,
2013-02-14 01:43:00,30.5,28.2,29.71,NW,313,1.0,2.0,91,0.00,,,0.00,Wunderground v.1.15,2013-02-14 06:43:00,
2013-02-14 01:48:00,30.3,28.3,29.71,NW,313,0.0,2.0,92,0.00,,,0.00,Wunderground v.1.15,2013-02-14 06:48:00,
2013-02-14 01:54:00,30.3,28.5,29.70,NNW,333,2.0,3.0,93,0.00,,,0.00,Wunderground v.1.15,2013-02-14 06:54:00,
2013-02-14 01:59:00,30.2,28.4,29.71,NNW,333,1.0,3.0,93,0.00,,,0.00,Wunderground v.1.15,2013-02-14 06:59:00,
2013-02-14 02:04:00,30.1,28.3,29.71,NNW,333,0.0,2.0,93,0.00,,,0.00,Wunderground v.1.15,2013-02-14 07:04:00,
2013-02-14 02:09:00,30.1,28.6,29.71,NNW,333,0.0,2.0,94,0.00,,,0.00,Wunderground v.1.15,2013-02-14 07:09:00,
2013-02-14 02:14:00,30.1,28.6,29.71,NNW,333,0.0,0.0,94,0.00,,,0.00,Wunderground v.1.15,2013-02-14 07:14:00,
2013-02-14 02:19:00,30.0,28.5,29.71,NNW,333,0.0,0.0,94,0.00,,,0.00,Wunderground v.1.15,2013-02-14 07:19:00,
2013-02-14 02:24:00,30.0,28.5,29.71,NNW,333,0.0,0.0,94,0.00,,,0.00,Wunderground v.1.15,2013-02-14 07:24:00,
2013-02-14 02:29:00,29.9,28.4,29.71,NNW,333,0.0,0.0,94,0.00,,,0.00,Wunderground v.1.15,2013-02-14 07:29:00,
2013-02-14 02:34:00,29.9,28.4,29.71,NNW,333,0.0,2.0,94,0.00,,,0.00,Wunderground v.1.15,2013-02-14 07:34:00,
2013-02-14 02:39:00,30.0,28.5,29.70,NNW,333,1.0,2.0,94,0.00,,,0.00,Wunderground v.1.15,2013-02-14 07:39:00,
2013-02-14 02:44:00,30.0,28.5,29.70,NNW,333,2.0,3.0,94,0.00,,,0.00,Wunderground v.1.15,2013-02-14 07:44:00,
2013-02-14 02:49:00,30.0,28.5,29.70,NNW,331,2.0,3.0,94,0.00,,,0.00,Wunderground v.1.15,2013-02-14 07:49:00,
2013-02-14 02:54:00,30.0,28.7,29.70,NNW,331,1.0,3.0,95,0.00,,,0.00,Wunderground v.1.15,2013-02-14 07:54:00,
2013-02-14 02:59:00,29.9,28.6,29.70,NNW,331,2.0,3.0,95,0.00,,,0.00,Wunderground v.1.15,2013-02-14 07:59:00,
2013-02-14 03:04:00,29.9,28.6,29.70,NNW,331,0.0,2.0,95,0.00,,,0.00,Wunderground v.1.15,2013-02-14 08:04:00,
2013-02-14 03:09:00,29.9,28.6,29.69,NNW,331,2.0,3.0,95,0.00,,,0.00,Wunderground v.1.15,2013-02-14 08:09:00,
2013-02-14 03:14:00,29.9,28.6,29.70,NNW,329,1.0,3.0,95,0.00,,,0.00,Wunderground v.1.15,2013-02-14 08:14:00,
2013-02-14 03:19:00,29.9,28.6,29.70,NNW,329,0.0,1.0,95,0.00,,,0.00,Wunderground v.1.15,2013-02-14 08:19:00,
2013-02-14 03:24:00,29.8,28.5,29.70,NNW,329,0.0,1.0,95,0.00,,,0.00,Wunderground v.1.15,2013-02-14 08:24:00,
2013-02-14 03:29:00,29.7,28.4,29.69,NNW,329,2.0,2.0,95,0.00,,,0.00,Wunderground v.1.15,2013-02-14 08:29:00,
2013-02-14 03:34:00,29.4,27.9,29.69,NNW,329,2.0,3.0,94,0.00,,,0.00,Wunderground v.1.15,2013-02-14 08:34:00,
2013-02-14 03:39:00,29.2,27.7,29.70,NNW,329,0.0,2.0,94,0.00,,,0.00,Wunderground v.1.15,2013-02-14 08:39:00,
2013-02-14 03:44:00,29.1,27.8,29.70,NNW,329,1.0,2.0,95,0.00,,,0.00,Wunderground v.1.15,2013-02-14 08:44:00,
2013-02-14 03:49:00,29.0,27.7,29.70,NNW,329,1.0,2.0,95,0.00,,,0.00,Wunderground v.1.15,2013-02-14 08:49:00,
2013-02-14 03:54:00,29.2,27.9,29.70,NNW,329,2.0,3.0,95,0.00,,,0.00,Wunderground v.1.15,2013-02-14 08:54:00,
2013-02-14 04:00:00,29.4,28.1,29.70,NNW,328,4.0,4.0,95,0.00,,,0.00,Wunderground v.1.15,2013-02-14 09:00:00,
2013-02-14 04:05:00,29.7,28.7,29.70,NW,309,4.0,5.0,96,0.00,,,0.00,Wunderground v.1.15,2013-02-14 09:05:00,
2013-02-14 04:10:00,29.9,28.9,29.70,WNW,302,4.0,4.0,96,0.00,,,0.00,Wunderground v.1.15,2013-02-14 09:10:00,
2013-02-14 04:15:00,30.1,29.1,29.70,NW,305,2.0,5.0,96,0.00,,,0.00,Wunderground v.1.15,2013-02-14 09:15:00,
2013-02-14 04:20:00,30.1,28.8,29.71,NW,317,3.0,4.0,95,0.00,,,0.00,Wunderground v.1.15,2013-02-14 09:20:00,
2013-02-14 04:25:00,30.1,28.8,29.71,WNW,302,2.0,5.0,95,0.00,,,0.00,Wunderground v.1.15,2013-02-14 09:25:00,
2013-02-14 04:30:00,30.1,29.1,29.71,NW,319,1.0,2.0,96,0.00,,,0.00,Wunderground v.1.15,2013-02-14 09:30:00,
2013-02-14 04:35:00,29.8,28.5,29.71,NW,307,3.0,3.0,95,0.00,,,0.00,Wunderground v.1.15,2013-02-14 09:35:00,
2013-02-14 04:40:00,29.8,28.5,29.72,NW,305,4.0,4.0,95,0.00,,,0.00,Wunderground v.1.15,2013-02-14 09:40:00,
2013-02-14 04:45:00,29.9,28.6,29.72,NW,309,2.0,5.0,95,0.00,,,0.00,Wunderground v.1.15,2013-02-14 09:45:00,
2013-02-14 04:50:00,29.9,28.6,29.72,WNW,300,2.0,2.0,95,0.00,,,0.00,Wunderground v.1.15,2013-02-14 09:50:00,
2013-02-14 04:55:00,29.8,28.5,29.72,WNW,297,1.0,4.0,95,0.00,,,0.00,Wunderground v.1.15,2013-02-14 09:55:00,
2013-02-14 05:00:00,29.9,28.6,29.72,WNW,302,0.0,2.0,95,0.00,,,0.00,Wunderground v.1.15,2013-02-14 10:00:00,
2013-02-14 05:05:00,29.9,28.6,29.72,NW,317,5.0,5.0,95,0.00,,,0.00,Wunderground v.1.15,2013-02-14 10:05:00,
2013-02-14 05:10:00,29.9,28.6,29.72,NW,315,4.0,5.0,95,0.00,,,0.00,Wunderground v.1.15,2013-02-14 10:10:00,
2013-02-14 05:15:00,29.9,28.6,29.73,West,271,1.0,5.0,95,0.00,,,0.00,Wunderground v.1.15,2013-02-14 10:15:00,
2013-02-14 05:20:00,29.9,28.6,29.73,NNW,328,3.0,3.0,95,0.00,,,0.00,Wunderground v.1.15,2013-02-14 10:20:00,
2013-02-14 05:26:00,29.8,28.5,29.73,WNW,290,5.0,5.0,95,0.00,,,0.00,Wunderground v.1.15,2013-02-14 10:26:00,
2013-02-14 05:31:00,29.7,28.2,29.73,WNW,300,3.0,4.0,94,0.00,,,0.00,Wunderground v.1.15,2013-02-14 10:31:00,
2013-02-14 05:36:00,29.4,27.6,29.73,WNW,302,3.0,5.0,93,0.00,,,0.00,Wunderground v.1.15,2013-02-14 10:36:00,
2013-02-14 05:41:00,29.1,27.1,29.73,WNW,293,1.0,3.0,92,0.00,,,0.00,Wunderground v.1.15,2013-02-14 10:41:00,
2013-02-14 05:46:00,28.7,26.7,29.74,NW,317,3.0,4.0,92,0.00,,,0.00,Wunderground v.1.15,2013-02-14 10:46:00,
2013-02-14 05:51:00,28.6,26.6,29.74,WNW,291,1.0,4.0,92,0.00,,,0.00,Wunderground v.1.15,2013-02-14 10:51:00,
2013-02-14 05:56:00,28.7,26.7,29.74,WNW,294,3.0,4.0,92,0.00,,,0.00,Wunderground v.1.15,2013-02-14 10:56:00,
2013-02-14 06:01:00,28.7,26.4,29.73,NW,314,2.0,6.0,91,0.00,,,0.00,Wunderground v.1.15,2013-02-14 11:01:00,
2013-02-14 06:06:00,28.5,25.9,29.74,NW,315,3.0,6.0,90,0.00,,,0.00,Wunderground v.1.15,2013-02-14 11:06:00,
2013-02-14 06:11:00,28.2,25.4,29.74,NW,308,0.0,2.0,89,0.00,,,0.00,Wunderground v.1.15,2013-02-14 11:11:00,
2013-02-14 06:16:00,27.8,25.2,29.74,NW,321,3.0,4.0,90,0.00,,,0.00,Wunderground v.1.15,2013-02-14 11:16:00,
2013-02-14 06:21:00,27.8,25.2,29.74,NW,315,3.0,4.0,90,0.00,,,0.00,Wunderground v.1.15,2013-02-14 11:21:00,
2013-02-14 06:26:00,28.0,25.4,29.75,WNW,299,2.0,4.0,90,0.00,,,0.00,Wunderground v.1.15,2013-02-14 11:26:00,
2013-02-14 06:31:00,28.0,25.4,29.74,NW,311,2.0,3.0,90,0.00,,,0.00,Wunderground v.1.15,2013-02-14 11:31:00,
2013-02-14 06:36:00,28.0,25.4,29.75,NW,315,4.0,5.0,90,0.00,,,0.00,Wunderground v.1.15,2013-02-14 11:36:00,
2013-02-14 06:41:00,28.1,25.3,29.75,WNW,303,2.0,4.0,89,0.00,,,0.00,Wunderground v.1.15,2013-02-14 11:41:00,
2013-02-14 06:46:00,28.1,25.3,29.76,NW,325,2.0,5.0,89,0.00,,,0.00,Wunderground v.1.15,2013-02-14 11:46:00,
2013-02-14 06:51:00,28.1,25.3,29.76,NW,306,1.0,3.0,89,0.00,,,0.00,Wunderground v.1.15,2013-02-14 11:51:00,
2013-02-14 06:56:00,28.0,25.2,29.76,NW,313,2.0,4.0,89,0.00,,,0.00,Wunderground v.1.15,2013-02-14 11:56:00,
2013-02-14 07:01:00,27.9,25.1,29.77,WNW,296,3.0,4.0,89,0.00,,,0.00,Wunderground v.1.15,2013-02-14 12:01:00,
2013-02-14 07:06:00,27.9,25.1,29.78,NNW,327,2.0,5.0,89,0.00,,,0.00,Wunderground v.1.15,2013-02-14 12:06:00,
2013-02-14 07:11:00,28.1,25.3,29.78,NNW,333,3.0,3.0,89,0.00,,,0.00,Wunderground v.1.15,2013-02-14 12:11:00,
2013-02-14 07:16:00,28.3,25.5,29.78,NW,308,3.0,5.0,89,0.00,,,0.00,Wunderground v.1.15,2013-02-14 12:16:00,
2013-02-14 07:21:00,28.4,25.3,29.78,NNW,330,2.0,4.0,88,0.00,,,0.00,Wunderground v.1.15,2013-02-14 12:21:00,
2013-02-14 07:26:00,28.4,25.3,29.78,NW,305,2.0,4.0,88,0.00,,,0.00,Wunderground v.1.15,2013-02-14 12:26:00,
2013-02-14 07:31:00,27.7,23.2,29.78,NNW,331,1.0,2.0,83,0.00,,,0.00,Wunderground v.1.15,2013-02-14 12:31:00,
2013-02-14 07:36:00,26.6,22.4,29.79,NNW,331,1.0,2.0,84,0.00,,,0.00,Wunderground v.1.15,2013-02-14 12:36:00,
2013-02-14 07:41:00,26.9,24.1,29.80,NW,304,6.0,6.0,89,0.00,,,0.00,Wunderground v.1.15,2013-02-14 12:41:00,
2013-02-14 07:46:00,28.3,26.0,29.80,NW,309,3.0,6.0,91,0.00,,,0.00,Wunderground v.1.15,2013-02-14 12:46:00,
2013-02-14 07:51:00,29.5,26.7,29.80,NW,306,3.0,4.0,89,0.00,,,0.00,Wunderground v.1.15,2013-02-14 12:51:00,
2013-02-14 07:56:00,30.2,26.8,29.80,WNW,303,2.0,6.0,87,0.00,,,0.00,Wunderground v.1.15,2013-02-14 12:56:00,
2013-02-14 08:01:00,30.6,26.9,29.81,NNW,335,5.0,6.0,86,0.00,,,0.00,Wunderground v.1.15,2013-02-14 13:01:00,
2013-02-14 08:06:00,30.8,27.1,29.81,NW,317,2.0,6.0,86,0.00,,,0.00,Wunderground v.1.15,2013-02-14 13:06:00,
2013-02-14 08:11:00,30.8,26.8,29.81,NW,304,4.0,5.0,85,0.00,,,0.00,Wunderground v.1.15,2013-02-14 13:11:00,
2013-02-14 08:17:00,31.0,27.0,29.82,NW,307,1.0,5.0,85,0.00,,,0.00,Wunderground v.1.15,2013-02-14 13:17:00,
2013-02-14 08:22:00,31.2,26.9,29.82,NW,316,4.0,4.0,84,0.00,,,0.00,Wunderground v.1.15,2013-02-14 13:22:00,
2013-02-14 08:27:00,31.5,26.9,29.83,WNW,303,2.0,4.0,83,0.00,,,0.00,Wunderground v.1.15,2013-02-14 13:27:00,
2013-02-14 08:32:00,31.7,26.8,29.83,WNW,300,2.0,6.0,82,0.00,,,0.00,Wunderground v.1.15,2013-02-14 13:32:00,
2013-02-14 08:37:00,31.9,27.0,29.83,NW,319,3.0,6.0,82,0.00,,,0.00,Wunderground v.1.15,2013-02-14 13:37:00,
2013-02-14 08:42:00,31.9,27.0,29.83,NW,304,4.0,5.0,82,0.00,,,0.00,Wunderground v.1.15,2013-02-14 13:42:00,
2013-02-14 08:47:00,31.8,26.6,29.83,NW,315,4.0,5.0,81,0.00,,,0.00,Wunderground v.1.15,2013-02-14 13:47:00,
2013-02-14 08:52:00,31.6,26.1,29.83,NW,311,1.0,4.0,80,0.00,,,0.00,Wunderground v.1.15,2013-02-14 13:52:00,
2013-02-14 08:57:00,31.4,25.9,29.83,NNW,332,2.0,4.0,80,0.00,,,0.00,Wunderground v.1.15,2013-02-14 13:57:00,
2013-02-14 09:02:00,31.4,26.2,29.84,NW,313,1.0,4.0,81,0.00,,,0.00,Wunderground v.1.15,2013-02-14 14:02:00,
2013-02-14 09:07:00,31.7,26.5,29.83,WNW,302,2.0,4.0,81,0.00,,,0.01,Wunderground v.1.15,2013-02-14 14:07:00,
2013-02-14 09:12:00,31.9,26.7,29.84,WNW,299,3.0,4.0,81,0.00,,,0.01,Wunderground v.1.15,2013-02-14 14:12:00,
2013-02-14 09:17:00,32.1,26.6,29.84,NW,304,2.0,5.0,80,0.00,,,0.01,Wunderground v.1.15,2013-02-14 14:17:00,
2013-02-14 09:22:00,32.4,26.9,29.84,NW,311,5.0,5.0,80,0.00,,,0.01,Wunderground v.1.15,2013-02-14 14:22:00,
2013-02-14 09:27:00,32.9,27.4,29.85,WNW,292,3.0,6.0,80,0.00,,,0.01,Wunderground v.1.15,2013-02-14 14:27:00,
2013-02-14 09:32:00,33.3,27.5,29.85,NNW,327,2.0,6.0,79,0.00,,,0.01,Wunderground v.1.15,2013-02-14 14:32:00,
2013-02-14 09:37:00,33.6,27.5,29.85,NNW,337,3.0,6.0,78,0.00,,,0.01,Wunderground v.1.15,2013-02-14 14:37:00,
2013-02-14 09:42:00,33.9,27.4,29.85,NW,318,3.0,8.0,77,0.00,,,0.02,Wunderground v.1.15,2013-02-14 14:42:00,
2013-02-14 09:47:00,34.3,27.8,29.85,NW,316,5.0,8.0,77,0.00,,,0.02,Wunderground v.1.15,2013-02-14 14:47:00,
2013-02-14 09:52:00,34.8,28.0,29.86,NW,307,2.0,5.0,76,0.00,,,0.02,Wunderground v.1.15,2013-02-14 14:52:00,
2013-02-14 09:57:00,35.3,28.2,29.86,WNW,294,5.0,6.0,75,0.00,,,0.02,Wunderground v.1.15,2013-02-14 14:57:00,
2013-02-14 10:02:00,35.5,28.0,29.87,NW,306,5.0,6.0,74,0.00,,,0.02,Wunderground v.1.15,2013-02-14 15:02:00,
2013-02-14 10:07:00,35.9,28.1,29.87,NNW,338,5.0,8.0,73,0.00,,,0.03,Wunderground v.1.15,2013-02-14 15:07:00,
2013-02-14 10:12:00,35.7,27.6,29.87,NNW,333,5.0,7.0,72,0.00,,,0.03,Wunderground v.1.15,2013-02-14 15:12:00,
2013-02-14 10:17:00,35.7,26.2,29.87,NNW,333,8.0,11.0,68,0.00,,,0.03,Wunderground v.1.15,2013-02-14 15:17:00,
2013-02-14 10:22:00,35.4,26.9,29.87,NNW,338,4.0,7.0,71,0.00,,,0.03,Wunderground v.1.15,2013-02-14 15:22:00,
2013-02-14 10:27:00,35.2,26.4,29.87,North,355,8.0,9.0,70,0.00,,,0.03,Wunderground v.1.15,2013-02-14 15:27:00,
2013-02-14 10:32:00,35.2,25.7,29.87,North,5,10.0,10.0,68,0.00,,,0.03,Wunderground v.1.15,2013-02-14 15:32:00,
2013-02-14 10:37:00,35.3,25.4,29.87,NNW,348,7.0,10.0,67,0.00,,,0.03,Wunderground v.1.15,2013-02-14 15:37:00,
2013-02-14 10:42:00,35.5,25.6,29.87,North,355,7.0,9.0,67,0.00,,,0.03,Wunderground v.1.15,2013-02-14 15:42:00,
2013-02-14 10:47:00,35.5,25.3,29.88,NNW,343,7.0,11.0,66,0.00,,,0.04,Wunderground v.1.15,2013-02-14 15:47:00,
2013-02-14 10:52:00,35.5,25.3,29.88,NNW,334,8.0,10.0,66,0.00,,,0.04,Wunderground v.1.15,2013-02-14 15:52:00,
2013-02-14 10:57:00,35.6,25.0,29.88,NNW,346,7.0,10.0,65,0.00,,,0.04,Wunderground v.1.15,2013-02-14 15:57:00,
2013-02-14 11:02:00,35.9,24.9,29.88,NNW,336,9.0,9.0,64,0.00,,,0.04,Wunderground v.1.15,2013-02-14 16:02:00,
2013-02-14 11:07:00,35.8,24.4,29.88,NNW,333,7.0,9.0,63,0.00,,,0.05,Wunderground v.1.15,2013-02-14 16:07:00,
2013-02-14 11:12:00,36.0,24.6,29.88,North,5,8.0,11.0,63,0.00,,,0.05,Wunderground v.1.15,2013-02-14 16:12:00,
2013-02-14 11:17:00,36.5,24.7,29.88,NNW,338,7.0,11.0,62,0.00,,,0.05,Wunderground v.1.15,2013-02-14 16:17:00,
2013-02-14 11:22:00,36.4,24.6,29.89,NNW,344,5.0,8.0,62,0.00,,,0.05,Wunderground v.1.15,2013-02-14 16:22:00,
2013-02-14 11:27:00,36.2,24.8,29.89,North,5,6.0,9.0,63,0.00,,,0.05,Wunderground v.1.15,2013-02-14 16:27:00,
2013-02-14 11:32:00,36.1,24.3,29.89,NNE,19,7.0,9.0,62,0.00,,,0.05,Wunderground v.1.15,2013-02-14 16:32:00,
2013-02-14 11:37:00,36.2,24.8,29.89,NNW,348,7.0,9.0,63,0.00,,,0.06,Wunderground v.1.15,2013-02-14 16:37:00,
2013-02-14 11:42:00,36.6,24.8,29.89,NNW,333,7.0,8.0,62,0.00,,,0.06,Wunderground v.1.15,2013-02-14 16:42:00,
2013-02-14 11:47:00,36.9,22.7,29.89,NNW,341,5.0,10.0,56,0.00,,,0.06,Wunderground v.1.15,2013-02-14 16:47:00,
2013-02-14 11:53:00,37.3,25.5,29.89,North,5,3.0,6.0,62,0.00,,,0.06,Wunderground v.1.15,2013-02-14 16:53:00,
2013-02-14 11:58:00,37.5,23.6,29.89,North,355,2.0,7.0,57,0.00,,,0.06,Wunderground v.1.15,2013-02-14 16:58:00,
2013-02-14 12:03:00,38.0,24.1,29.89,North,9,5.0,5.0,57,0.00,,,0.07,Wunderground v.1.15,2013-02-14 17:03:00,
2013-02-14 12:08:00,38.1,22.9,29.89,North,5,3.0,7.0,54,0.00,,,0.07,Wunderground v.1.15,2013-02-14 17:08:00,
2013-02-14 12:13:00,38.6,23.8,29.89,NNW,334,1.0,4.0,55,0.04,,,0.08,Wunderground v.1.15,2013-02-14 17:13:00,
2013-02-14 12:18:00,39.0,25.5,29.89,NNW,334,2.0,4.0,58,0.04,,,0.08,Wunderground v.1.15,2013-02-14 17:18:00,
2013-02-14 12:23:00,39.1,24.3,29.89,NNE,24,3.0,4.0,55,0.04,,,0.08,Wunderground v.1.15,2013-02-14 17:23:00,
2013-02-14 12:28:00,39.3,23.1,29.89,ENE,63,3.0,4.0,52,0.04,,,0.08,Wunderground v.1.15,2013-02-14 17:28:00,
2013-02-14 12:33:00,39.7,22.1,29.89,ENE,63,1.0,2.0,49,0.00,,,0.08,Wunderground v.1.15,2013-02-14 17:33:00,
2013-02-14 12:38:00,39.8,22.7,29.89,ENE,63,0.0,3.0,50,0.00,,,0.09,Wunderground v.1.15,2013-02-14 17:38:00,
2013-02-14 12:43:00,40.0,22.4,29.89,ENE,63,0.0,2.0,49,0.00,,,0.09,Wunderground v.1.15,2013-02-14 17:43:00,
2013-02-14 12:48:00,40.4,21.2,29.89,ENE,63,2.0,3.0,46,0.00,,,0.09,Wunderground v.1.15,2013-02-14 17:48:00,
2013-02-14 12:53:00,40.2,21.6,29.89,ENE,63,3.0,3.0,47,0.00,,,0.09,Wunderground v.1.15,2013-02-14 17:53:00,
2013-02-14 12:58:00,39.7,21.6,29.89,East,89,5.0,5.0,48,0.00,,,0.09,Wunderground v.1.15,2013-02-14 17:58:00,
2013-02-14 13:03:00,39.5,21.9,29.89,East,89,1.0,3.0,49,0.00,,,0.09,Wunderground v.1.15,2013-02-14 18:03:00,
2013-02-14 13:08:00,39.5,22.8,29.89,East,89,2.0,3.0,51,0.00,,,0.09,Wunderground v.1.15,2013-02-14 18:08:00,
2013-02-14 13:13:00,39.5,22.8,29.89,East,89,0.0,3.0,51,0.00,,,0.09,Wunderground v.1.15,2013-02-14 18:13:00,
2013-02-14 13:18:00,39.6,22.0,29.89,East,89,2.0,3.0,49,0.00,,,0.09,Wunderground v.1.15,2013-02-14 18:18:00,
2013-02-14 13:23:00,39.6,22.0,29.89,East,89,2.0,3.0,49,0.00,,,0.09,Wunderground v.1.15,2013-02-14 18:23:00,
2013-02-14 13:28:00,39.0,24.6,29.89,NE,48,1.0,3.0,56,0.00,,,0.09,Wunderground v.1.15,2013-02-14 18:28:00,
2013-02-14 13:33:00,38.4,22.3,29.89,NNE,12,3.0,4.0,52,0.00,,,0.09,Wunderground v.1.15,2013-02-14 18:33:00,
2013-02-14 13:38:00,38.6,24.2,29.89,NW,316,4.0,5.0,56,0.00,,,0.09,Wunderground v.1.15,2013-02-14 18:38:00,
2013-02-14 13:43:00,39.2,23.5,29.89,NW,320,4.0,7.0,53,0.00,,,0.09,Wunderground v.1.15,2013-02-14 18:43:00,
2013-02-14 13:48:00,39.6,24.7,29.89,NNW,332,3.0,7.0,55,0.00,,,0.09,Wunderground v.1.15,2013-02-14 18:48:00,
2013-02-14 13:53:00,39.9,22.7,29.89,NNW,332,1.0,4.0,50,0.00,,,0.09,Wunderground v.1.15,2013-02-14 18:53:00,
2013-02-14 13:58:00,40.0,22.8,29.89,ENE,67,4.0,4.0,50,0.00,,,0.09,Wunderground v.1.15,2013-02-14 18:58:00,
2013-02-14 14:03:00,39.5,24.7,29.89,ENE,63,3.0,5.0,55,0.00,,,0.09,Wunderground v.1.15,2013-02-14 19:03:00,
2013-02-14 14:08:00,38.5,23.3,29.89,ENE,63,1.0,5.0,54,0.00,,,0.09,Wunderground v.1.15,2013-02-14 19:08:00,
2013-02-14 14:13:00,38.3,23.5,29.89,ENE,63,0.0,3.0,55,0.00,,,0.09,Wunderground v.1.15,2013-02-14 19:13:00,
2013-02-14 14:18:00,38.3,23.5,29.89,ENE,63,3.0,3.0,55,0.00,,,0.09,Wunderground v.1.15,2013-02-14 19:18:00,
2013-02-14 14:23:00,38.2,23.0,29.89,ENE,63,0.0,3.0,54,0.00,,,0.09,Wunderground v.1.15,2013-02-14 19:23:00,
2013-02-14 14:28:00,38.1,22.9,29.90,ENE,63,2.0,3.0,54,0.00,,,0.09,Wunderground v.1.15,2013-02-14 19:28:00,
2013-02-14 14:33:00,37.9,22.3,29.90,ENE,63,2.0,3.0,53,0.00,,,0.09,Wunderground v.1.15,2013-02-14 19:33:00,
2013-02-14 14:38:00,37.6,22.0,29.90,ENE,63,2.0,3.0,53,0.00,,,0.09,Wunderground v.1.15,2013-02-14 19:38:00,
2013-02-14 14:44:00,37.5,22.8,29.90,ENE,63,0.0,2.0,55,0.00,,,0.09,Wunderground v.1.15,2013-02-14 19:44:00,
2013-02-14 14:49:00,37.5,22.8,29.90,ENE,63,0.0,2.0,55,0.00,,,0.09,Wunderground v.1.15,2013-02-14 19:49:00,
2013-02-14 14:54:00,37.7,21.6,29.90,ENE,63,0.0,0.0,52,0.00,,,0.09,Wunderground v.1.15,2013-02-14 19:54:00,
2013-02-14 14:59:00,37.9,22.3,29.90,ENE,63,0.0,0.0,53,0.00,,,0.09,Wunderground v.1.15,2013-02-14 19:59:00,
2013-02-14 15:04:00,37.7,21.2,29.90,ENE,63,1.0,2.0,51,0.00,,,0.09,Wunderground v.1.15,2013-02-14 20:04:00,
2013-02-14 15:09:00,37.8,20.8,29.90,ENE,63,0.0,2.0,50,0.00,,,0.09,Wunderground v.1.15,2013-02-14 20:09:00,
2013-02-14 15:14:00,38.1,21.5,29.90,ENE,63,0.0,2.0,51,0.00,,,0.09,Wunderground v.1.15,2013-02-14 20:14:00,
2013-02-14 15:19:00,38.4,21.4,29.91,ENE,63,1.0,2.0,50,0.00,,,0.09,Wunderground v.1.15,2013-02-14 20:19:00,
2013-02-14 15:24:00,38.3,22.6,29.91,ENE,63,0.0,2.0,53,0.00,,,0.09,Wunderground v.1.15,2013-02-14 20:24:00,
2013-02-14 15:29:00,38.0,21.5,29.91,ENE,63,0.0,2.0,51,0.00,,,0.09,Wunderground v.1.15,2013-02-14 20:29:00,
2013-02-14 15:34:00,38.3,22.6,29.91,ENE,65,0.0,3.0,53,0.00,,,0.09,Wunderground v.1.15,2013-02-14 20:34:00,
2013-02-14 15:39:00,38.9,23.2,29.91,ENE,66,0.0,3.0,53,0.00,,,0.09,Wunderground v.1.15,2013-02-14 20:39:00,
2013-02-14 15:44:00,39.3,22.7,29.92,ENE,66,0.0,1.0,51,0.00,,,0.09,Wunderground v.1.15,2013-02-14 20:44:00,
2013-02-14 15:49:00,39.7,23.0,29.92,WSW,241,0.0,2.0,51,0.00,,,0.09,Wunderground v.1.15,2013-02-14 20:49:00,
2013-02-14 15:54:00,39.9,24.6,29.92,SW,219,0.0,2.0,54,0.00,,,0.09,Wunderground v.1.15,2013-02-14 20:54:00,
2013-02-14 15:59:00,40.0,25.1,29.92,South,169,0.0,4.0,55,0.00,,,0.09,Wunderground v.1.15,2013-02-14 20:59:00,
2013-02-14 16:04:00,40.1,25.2,29.93,South,177,0.0,3.0,55,0.00,,,0.09,Wunderground v.1.15,2013-02-14 21:04:00,
2013-02-14 16:09:00,40.1,25.6,29.93,SSE,151,0.0,3.0,56,0.00,,,0.09,Wunderground v.1.15,2013-02-14 21:09:00,
2013-02-14 16:14:00,40.0,25.6,29.92,SSE,153,1.0,4.0,56,0.00,,,0.09,Wunderground v.1.15,2013-02-14 21:14:00,
2013-02-14 16:19:00,39.6,25.2,29.92,SSE,147,1.0,3.0,56,0.00,,,0.09,Wunderground v.1.15,2013-02-14 21:19:00,
2013-02-14 16:25:00,39.4,25.0,29.92,SE,138,1.0,3.0,56,0.00,,,0.09,Wunderground v.1.15,2013-02-14 21:25:00,
2013-02-14 16:30:00,39.3,24.9,29.92,SSE,159,0.0,1.0,56,0.00,,,0.09,Wunderground v.1.15,2013-02-14 21:30:00,
2013-02-14 16:35:00,39.2,24.8,29.93,SSE,164,0.0,3.0,56,0.00,,,0.09,Wunderground v.1.15,2013-02-14 21:35:00,
2013-02-14 16:40:00,39.0,25.0,29.93,South,175,0.0,1.0,57,0.00,,,0.09,Wunderground v.1.15,2013-02-14 21:40:00,
2013-02-14 16:45:00,38.8,24.9,29.93,South,175,0.0,1.0,57,0.00,,,0.09,Wunderground v.1.15,2013-02-14 21:45:00,
2013-02-14 16:50:00,38.5,25.0,29.94,SSW,196,0.0,0.0,58,0.00,,,0.09,Wunderground v.1.15,2013-02-14 21:50:00,
2013-02-14 16:55:00,38.2,25.5,29.94,SSW,196,0.0,1.0,60,0.00,,,0.09,Wunderground v.1.15,2013-02-14 21:55:00,
2013-02-14 17:00:00,38.0,25.7,29.94,SSW,196,0.0,0.0,61,0.00,,,0.09,Wunderground v.1.15,2013-02-14 22:00:00,
2013-02-14 17:05:00,37.7,25.5,29.95,SSW,196,0.0,1.0,61,0.00,,,0.09,Wunderground v.1.15,2013-02-14 22:05:00,
2013-02-14 17:10:00,37.4,25.9,29.95,SSW,196,0.0,0.0,63,0.00,,,0.09,Wunderground v.1.15,2013-02-14 22:10:00,
2013-02-14 17:15:00,36.9,25.9,29.95,SSW,196,0.0,0.0,64,0.00,,,0.09,Wunderground v.1.15,2013-02-14 22:15:00,
2013-02-14 17:20:00,36.5,25.5,29.95,SSW,196,0.0,0.0,64,0.00,,,0.09,Wunderground v.1.15,2013-02-14 22:20:00,
2013-02-14 17:25:00,36.2,24.8,29.95,SW,225,0.0,4.0,63,0.00,,,0.09,Wunderground v.1.15,2013-02-14 22:25:00,
2013-02-14 17:30:00,36.0,25.0,29.95,SW,221,1.0,1.0,64,0.00,,,0.09,Wunderground v.1.15,2013-02-14 22:30:00,
2013-02-14 17:35:00,35.7,25.4,29.96,SW,221,0.0,1.0,66,0.00,,,0.09,Wunderground v.1.15,2013-02-14 22:35:00,
2013-02-14 17:40:00,35.6,25.4,29.96,SW,221,0.0,0.0,66,0.00,,,0.09,Wunderground v.1.15,2013-02-14 22:40:00,
2013-02-14 17:45:00,35.2,25.7,29.97,SW,221,0.0,1.0,68,0.00,,,0.09,Wunderground v.1.15,2013-02-14 22:45:00,
2013-02-14 17:50:00,35.0,25.9,29.97,SW,221,0.0,0.0,69,0.00,,,0.09,Wunderground v.1.15,2013-02-14 22:50:00,
2013-02-14 17:55:00,34.8,26.0,29.97,SW,221,0.0,0.0,70,0.00,,,0.09,Wunderground v.1.15,2013-02-14 22:55:00,
2013-02-14 18:00:00,34.4,26.0,29.97,SW,221,0.0,0.0,71,0.00,,,0.09,Wunderground v.1.15,2013-02-14 23:00:00,
2013-02-14 18:05:00,34.2,26.1,29.97,SW,221,0.0,2.0,72,0.00,,,0.09,Wunderground v.1.15,2013-02-14 23:05:00,
2013-02-14 18:10:00,34.1,26.3,29.97,SW,221,0.0,0.0,73,0.00,,,0.09,Wunderground v.1.15,2013-02-14 23:10:00,
2013-02-14 18:15:00,33.9,26.2,29.98,SW,221,0.0,1.0,73,0.00,,,0.09,Wunderground v.1.15,2013-02-14 23:15:00,
2013-02-14 18:20:00,33.7,26.3,29.98,SW,221,0.0,0.0,74,0.00,,,0.09,Wunderground v.1.15,2013-02-14 23:20:00,
2013-02-14 18:25:00,33.6,26.2,29.98,SW,221,1.0,2.0,74,0.00,,,0.09,Wunderground v.1.15,2013-02-14 23:25:00,
2013-02-14 18:30:00,33.6,26.2,29.98,SW,221,0.0,0.0,74,0.00,,,0.09,Wunderground v.1.15,2013-02-14 23:30:00,
2013-02-14 18:35:00,33.5,26.1,29.98,SW,221,0.0,2.0,74,0.00,,,0.09,Wunderground v.1.15,2013-02-14 23:35:00,
2013-02-14 18:40:00,33.3,26.2,29.98,SW,221,0.0,0.0,75,0.00,,,0.09,Wunderground v.1.15,2013-02-14 23:40:00,
2013-02-14 18:45:00,33.2,26.1,29.98,SW,221,0.0,1.0,75,0.00,,,0.09,Wunderground v.1.15,2013-02-14 23:45:00,
2013-02-14 18:50:00,33.0,25.9,29.97,SW,221,0.0,0.0,75,0.00,,,0.09,Wunderground v.1.15,2013-02-14 23:50:00,
2013-02-14 18:55:00,32.8,26.1,29.97,SW,221,0.0,0.0,76,0.00,,,0.09,Wunderground v.1.15,2013-02-14 23:55:00,
2013-02-14 19:00:00,32.6,26.2,29.98,SW,221,0.0,0.0,77,0.00,,,0.09,Wunderground v.1.15,2013-02-15 00:00:00,
2013-02-14 19:05:00,32.4,26.0,29.97,SW,221,0.0,3.0,77,0.00,,,0.09,Wunderground v.1.15,2013-02-15 00:05:00,
2013-02-14 19:10:00,32.1,26.0,29.97,SW,221,0.0,0.0,78,0.00,,,0.09,Wunderground v.1.15,2013-02-15 00:10:00,
2013-02-14 19:15:00,31.8,26.0,29.97,SW,221,0.0,0.0,79,0.00,,,0.09,Wunderground v.1.15,2013-02-15 00:15:00,
2013-02-14 19:20:00,31.6,26.1,29.97,SW,221,0.0,0.0,80,0.00,,,0.09,Wunderground v.1.15,2013-02-15 00:20:00,
2013-02-14 19:25:00,31.4,25.9,29.97,SW,221,0.0,0.0,80,0.00,,,0.09,Wunderground v.1.15,2013-02-15 00:25:00,
2013-02-14 19:30:00,31.0,25.6,29.97,SW,221,0.0,0.0,80,0.00,,,0.09,Wunderground v.1.15,2013-02-15 00:30:00,
2013-02-14 19:35:00,30.7,25.9,29.97,SW,221,0.0,0.0,82,0.00,,,0.09,Wunderground v.1.15,2013-02-15 00:35:00,
2013-02-14 19:40:00,30.6,25.8,29.97,SW,221,0.0,0.0,82,0.00,,,0.09,Wunderground v.1.15,2013-02-15 00:40:00,
2013-02-14 19:45:00,30.4,25.9,29.98,SW,221,0.0,0.0,83,0.00,,,0.09,Wunderground v.1.15,2013-02-15 00:45:00,
2013-02-14 19:50:00,30.3,25.8,29.98,SW,221,0.0,0.0,83,0.00,,,0.09,Wunderground v.1.15,2013-02-15 00:50:00,
2013-02-14 19:55:00,30.2,25.7,29.98,SW,221,0.0,0.0,83,0.00,,,0.09,Wunderground v.1.15,2013-02-15 00:55:00,
2013-02-14 20:00:00,30.0,25.5,29.99,SW,221,0.0,0.0,83,0.00,,,0.09,Wunderground v.1.15,2013-02-15 01:00:00,
2013-02-14 20:06:00,29.8,25.6,29.99,SW,221,0.0,1.0,84,0.00,,,0.09,Wunderground v.1.15,2013-02-15 01:06:00,
2013-02-14 20:11:00,29.7,25.7,29.99,SW,221,0.0,0.0,85,0.00,,,0.09,Wunderground v.1.15,2013-02-15 01:11:00,
2013-02-14 20:16:00,29.6,25.6,29.99,SW,221,0.0,0.0,85,0.00,,,0.09,Wunderground v.1.15,2013-02-15 01:16:00,
2013-02-14 20:21:00,29.5,25.5,29.99,SW,221,0.0,0.0,85,0.00,,,0.09,Wunderground v.1.15,2013-02-15 01:21:00,
2013-02-14 20:26:00,29.4,25.4,29.99,SW,221,0.0,0.0,85,0.00,,,0.09,Wunderground v.1.15,2013-02-15 01:26:00,
2013-02-14 20:31:00,29.3,25.6,29.99,SW,221,0.0,0.0,86,0.00,,,0.09,Wunderground v.1.15,2013-02-15 01:31:00,
2013-02-14 20:36:00,29.2,25.5,29.99,SW,221,0.0,1.0,86,0.00,,,0.09,Wunderground v.1.15,2013-02-15 01:36:00,
2013-02-14 20:41:00,29.2,25.5,29.99,SW,221,0.0,0.0,86,0.00,,,0.09,Wunderground v.1.15,2013-02-15 01:41:00,
2013-02-14 20:46:00,29.2,25.5,29.99,SW,221,0.0,1.0,86,0.00,,,0.09,Wunderground v.1.15,2013-02-15 01:46:00,
2013-02-14 20:51:00,29.1,25.4,29.99,SW,221,0.0,0.0,86,0.00,,,0.09,Wunderground v.1.15,2013-02-15 01:51:00,
2013-02-14 20:56:00,29.1,25.4,29.99,SW,221,0.0,1.0,86,0.00,,,0.09,Wunderground v.1.15,2013-02-15 01:56:00,
2013-02-14 21:01:00,29.1,25.4,30.00,SW,221,0.0,2.0,86,0.00,,,0.09,Wunderground v.1.15,2013-02-15 02:01:00,
2013-02-14 21:06:00,29.1,25.4,30.00,SW,221,0.0,2.0,86,0.00,,,0.09,Wunderground v.1.15,2013-02-15 02:06:00,
2013-02-14 21:11:00,29.0,25.6,30.00,SW,221,0.0,0.0,87,0.00,,,0.09,Wunderground v.1.15,2013-02-15 02:11:00,
2013-02-14 21:16:00,28.8,25.4,30.00,SW,221,0.0,0.0,87,0.00,,,0.09,Wunderground v.1.15,2013-02-15 02:16:00,
2013-02-14 21:21:00,28.6,25.2,30.00,SW,221,0.0,0.0,87,0.00,,,0.09,Wunderground v.1.15,2013-02-15 02:21:00,
2013-02-14 21:26:00,28.3,25.2,30.00,SW,221,0.0,1.0,88,0.00,,,0.09,Wunderground v.1.15,2013-02-15 02:26:00,
2013-02-14 21:31:00,28.2,25.1,30.00,SW,221,0.0,0.0,88,0.00,,,0.09,Wunderground v.1.15,2013-02-15 02:31:00,
2013-02-14 21:36:00,28.3,25.5,30.00,SW,221,0.0,1.0,89,0.00,,,0.09,Wunderground v.1.15,2013-02-15 02:36:00,
2013-02-14 21:41:00,28.2,25.4,30.00,SW,221,0.0,1.0,89,0.00,,,0.09,Wunderground v.1.15,2013-02-15 02:41:00,
2013-02-14 21:46:00,28.1,25.3,30.00,SW,221,0.0,1.0,89,0.00,,,0.09,Wunderground v.1.15,2013-02-15 02:46:00,
2013-02-14 21:51:00,27.9,24.8,30.00,SW,221,0.0,1.0,88,0.00,,,0.09,Wunderground v.1.15,2013-02-15 02:51:00,
2013-02-14 21:57:00,27.7,24.9,30.00,SW,221,0.0,1.0,89,0.00,,,0.09,Wunderground v.1.15,2013-02-15 02:57:00,
2013-02-14 22:02:00,27.7,24.9,29.99,SW,221,0.0,1.0,89,0.00,,,0.09,Wunderground v.1.15,2013-02-15 03:02:00,
2013-02-14 22:07:00,27.6,24.8,29.99,SW,221,0.0,1.0,89,0.00,,,0.09,Wunderground v.1.15,2013-02-15 03:07:00,
2013-02-14 22:12:00,27.4,24.6,29.99,SW,221,0.0,1.0,89,0.00,,,0.09,Wunderground v.1.15,2013-02-15 03:12:00,
2013-02-14 22:17:00,27.1,24.3,30.00,SW,221,0.0,1.0,89,0.00,,,0.09,Wunderground v.1.15,2013-02-15 03:17:00,
2013-02-14 22:22:00,27.0,24.5,30.00,SW,221,0.0,0.0,90,0.00,,,0.09,Wunderground v.1.15,2013-02-15 03:22:00,
2013-02-14 22:27:00,26.8,24.0,30.00,SW,221,0.0,1.0,89,0.00,,,0.09,Wunderground v.1.15,2013-02-15 03:27:00,
2013-02-14 22:32:00,26.8,24.3,30.00,SW,221,0.0,1.0,90,0.00,,,0.09,Wunderground v.1.15,2013-02-15 03:32:00,
2013-02-14 22:37:00,26.7,24.2,29.99,SW,221,0.0,1.0,90,0.00,,,0.09,Wunderground v.1.15,2013-02-15 03:37:00,
2013-02-14 22:42:00,26.5,24.0,29.99,SW,221,0.0,0.0,90,0.00,,,0.09,Wunderground v.1.15,2013-02-15 03:42:00,
2013-02-14 22:47:00,26.7,24.4,29.99,SW,221,0.0,0.0,91,0.00,,,0.09,Wunderground v.1.15,2013-02-15 03:47:00,
2013-02-14 22:52:00,26.7,24.4,29.99,SW,221,0.0,0.0,91,0.00,,,0.09,Wunderground v.1.15,2013-02-15 03:52:00,
2013-02-14 22:57:00,26.8,24.5,30.00,SW,221,0.0,0.0,91,0.00,,,0.09,Wunderground v.1.15,2013-02-15 03:57:00,
2013-02-14 23:02:00,26.7,24.4,30.00,SW,221,0.0,1.0,91,0.00,,,0.09,Wunderground v.1.15,2013-02-15 04:02:00,
2013-02-14 23:07:00,26.6,24.3,30.00,SW,221,0.0,1.0,91,0.00,,,0.09,Wunderground v.1.15,2013-02-15 04:07:00,
2013-02-14 23:12:00,26.6,24.3,30.00,SW,221,0.0,0.0,91,0.00,,,0.09,Wunderground v.1.15,2013-02-15 04:12:00,
2013-02-14 23:17:00,26.5,24.5,30.01,SW,221,0.0,1.0,92,0.00,,,0.09,Wunderground v.1.15,2013-02-15 04:17:00,
2013-02-14 23:22:00,26.5,24.5,30.01,SW,221,0.0,0.0,92,0.00,,,0.09,Wunderground v.1.15,2013-02-15 04:22:00,
2013-02-14 23:27:00,26.6,24.6,30.00,SW,221,0.0,0.0,92,0.00,,,0.09,Wunderground v.1.15,2013-02-15 04:27:00,
2013-02-14 23:32:00,26.6,24.6,30.00,SW,221,0.0,0.0,92,0.00,,,0.09,Wunderground v.1.15,2013-02-15 04:32:00,
2013-02-14 23:37:00,26.5,24.5,30.01,SW,221,0.0,0.0,92,0.00,,,0.09,Wunderground v.1.15,2013-02-15 04:37:00,
2013-02-14 23:42:00,26.4,24.4,30.01,SW,221,0.0,0.0,92,0.00,,,0.09,Wunderground v.1.15,2013-02-15 04:42:00,
2013-02-14 23:47:00,26.4,24.4,30.00,SW,221,0.0,0.0,92,0.00,,,0.09,Wunderground v.1.15,2013-02-15 04:47:00,
2013-02-14 23:52:00,26.4,24.7,30.01,SW,221,0.0,0.0,93,0.00,,,0.09,Wunderground v.1.15,2013-02-15 04:52:00,
2013-02-14 23:57:00,26.5,24.5,30.00,SW,221,0.0,0.0,92,0.00,,,0.09,Wunderground v.1.15,2013-02-15 04:57:00,